Other Public Products
Issued by NWS Charleston, SC

Current Version | Previous Version | Graphics & Text | Print | Product List | Glossary On
Versions: 1 2 3 4 5 6 7 8 9 10 11 12 13 14 15 16 17 18 19 20 21 22 23 24 25 26 27 28 29 30 31 32 33 34 35 36 37 38 39 40 41 42 43 44 45 46 47 48 49 50
876
FPUS82 KCHS 231427
OPUCHS

TEST...KCHS/KSAV Gateway Observations...TEST
National Weather Service Charleston SC
1000 AM EDT MON APR 23 2018

NOTE: "fair" indicates few or no clouds below 12,000 feet with no
significant weather and/or obstructions to visibility.

SCZ050-WAZ558-NCZ071-TXZ119-213-PAZ071-DCZ001-FLZ074-172-MI076-
NYZ176-178-MAZ016-IL014-TNZ027-NJZ106-GAZ044-MD014-231500-

...Gateway Observations for Charleston International...

CITY           SKY/WX    TMP DP  RH WIND       PRES   REMARKS
Chas Airport   LGT RAIN  64  61  90 E21       30.14F FOG
Seattle        PTCLDY    44  39  82 NE12      30.34S
Charlotte      LGT RAIN  56  52  86 E15G28    30.23F
Dallas DFW     CLOUDY    58  50  75 NW16      30.08S
Dallas Love    CLOUDY    59  49  69 NW15      30.10R
Philladelphia  FAIR      59  40  49 E8        30.47F
Wash National  PTSUNNY   59  41  51 CALM      30.44S
Baltimore      PTSUNNY   58  43  57 E5        30.43F
Miami          LGT RAIN  75  73  93 SE7       30.06R
Detroit        PTSUNNY   57  35  43 E9        30.26F
Newark         FAIR      56  31  38 VRB5      30.48R
Laguardia      FAIR      53  28  38 NE8       30.49R
J F K          FAIR      54  35  48 SE7       30.50R
Boston Logan   FAIR      52  21  29 SE7       30.51R
Ft. Lauderdale PTSUNNY   80  76  87 SE13      30.05S
Chicago O`Hare CLOUDY    49  28  44 N14       30.20F
Chicago Midway CLOUDY    50  28  42 NE12      30.20F
Houston Bush   FAIR      62  51  67 W7        30.09R
Houston Hobby  FAIR      64  52  64 NW7       30.08S
Nashville      RAIN      59  57  93 SE13      29.95R VSB 1
Atlanta        CLOUDY    62  61  96 E9        30.00R

$$

GAZ044-118-TXZ119-213-NCZ071-DCZ001-MDZ014-506-PAZ021-071-NJZ106-
NYZ176-178-MAZ106-OHZ011-021-055-MIZ076-KYZ091-ILZ014-INZ047-
MNZ060-ONZ431-231500-

...Gateway Observations for Savannah International...

CITY           SKY/WX    TMP DP  RH WIND       PRES   REMARKS
Savannah Arpt  HVY RAIN  67  66  97 SE20G26   30.05F VSB 1/2
Atlanta        CLOUDY    62  61  96 E9        30.00R
Charlotte      LGT RAIN  56  52  86 E15G28    30.23F
Dallas DFW     CLOUDY    58  50  75 NW16      30.08S
Houston Bush   FAIR      62  51  67 W7        30.09R
Wash National  PTSUNNY   59  41  51 CALM      30.44S
Wash Dulles    PTSUNNY   59  45  59 SE7       30.42F
Baltimore      PTSUNNY   58  43  57 E5        30.43F
Philadelphia   FAIR      59  40  49 E8        30.47F
Newark         FAIR      56  31  38 VRB5      30.48R
Laguardia      FAIR      53  28  38 NE8       30.49R
J F K          FAIR      54  35  48 SE7       30.50R
Boston         FAIR      52  21  29 SE7       30.51R
Pittsburg      PTSUNNY   60  41  49 SE8       30.29F
Akron          FAIR      61  41  47 SE12      30.26F
Cleveland      PTSUNNY   63  41  44 SE14      30.27F
Cincinnati     LGT RAIN  57  44  62 E8        30.11S
Columbus       FAIR      63  43  48 SE18      30.16F
Detroit        PTSUNNY   57  35  43 E9        30.26F
Chicago O`Hare CLOUDY    49  28  44 N14       30.20F
Minneapolis    FAIR      51  34  52 S5        30.25F
Indianapolis   CLOUDY    55  35  47 E10       30.11S
Toronto Canada MOSUNNY   55  21  26 SE8       30.39F

$$




USA.gov is the U.S. government's official web portal to all federal, state and local government web resources and services.